User: anonymous   Login
Location: Caltech
(34.1382°N, 118.1253°W)
Time: 09:59:52
(UTC-07:00)
Language:

PANSAT - Orbit

View from above orbital plane
View from above orbital plane
View from above satellite
View from above satellite

Ground track
Ground track

The orbit data is extracted from the following two-line orbital elements,

1 25520U 98064B   16179.20391853  .00000999  00000-0  27923-4 0  9990
2 25520  28.4566 241.0523 0005396  31.6780 328.4139 15.27738845979939
Epoch (UTC): 27 June 2016 04:53:38
Eccentricity: 0.0005396
inclination: 28.4566°
perigee height: 479 km
apogee height: 486 km
right ascension of ascending node: 241.0523°
argument of perigee: 31.6780°
revolutions per day: 15.27738845
mean anomaly at epoch: 328.4139°
orbit number at epoch: 97993

The dashed part of the orbit path shows where the satellite is in the earth's shadow,  

DLR